Flag for Luxembourg Weather past 2 weeks in Luxembourg, Luxembourg

Now
52 °F

Passing clouds.


Feels Like: 50 °F
Forecast: 46 / 63 °F
Wind: 6 mph from West

Location: Luxembourg Airport

Current Time: Sep 3, 2015 at 9:43:37 AM

Latest Report: Sep 3, 2015 at 8:50 AM


Visibility: N/A

Pressure: 29.98 "Hg

Humidity: 94%

Dew point: 50 °F

Location of LuxembourgLocation

Historic Weather in Luxembourg — Graph

°F

Luxembourg temperature yesterday

Maximum temperature yesterday: 66 °F (at 4:50 PM)
Minimum temperature yesterday: 48 °F (at 6:20 AM)
Average temperature yesterday: 57 °F

Past Weeks' High & Low Weather Summary

 TemperatureHumidityPressure
High90 °F (Aug 30, 5:20 PM)100% (Aug 23, 5:50 PM)30.27 "Hg (Aug 23, 5:50 PM)
Low48 °F (Sep 2, 6:20 AM)27% (Aug 31, 3:20 PM)29.62 "Hg (Aug 24, 12:20 PM)
Average66 °F70%30.00 "Hg
* Reported Aug 19 8:20 AM — Sep 3 8:20 AM, Luxembourg, Weather by CustomWeather, © 2015

Note: Actual official high and low records may vary slightly from our data, if they occured in-between our weather recording intervals... More about our weather records

Advertising

Luxembourg weather history for previous 24 hours

 ConditionsComfort  
Time TempWeatherWind HumidityBarometerVisibility
8:20 AM
Thu, Sep 3
54 °FPassing clouds.5 mph88%29.98 "HgN/A
7:50 AM52 °FPassing clouds.5 mph94%29.98 "HgN/A
7:20 AM50 °FClear.7 mph94%29.98 "Hg10 mi
6:50 AM50 °FClear.5 mph100%29.98 "Hg10 mi
6:20 AM50 °FPassing clouds.6 mph100%29.98 "HgN/A
5:50 AM52 °FClear.6 mph94%29.98 "Hg10 mi
5:20 AM52 °FClear.2 mph94%29.98 "Hg10 mi
4:50 AM52 °FCool.No wind94%29.98 "HgN/A
4:20 AM52 °FCool.2 mph94%29.98 "HgN/A
3:50 AM50 °FCool.3 mph94%29.98 "HgN/A
3:20 AM52 °FCool.2 mph88%29.98 "HgN/A
2:50 AM54 °FCool.3 mph82%29.98 "HgN/A
2:20 AM54 °FCool.6 mph82%29.98 "HgN/A
1:50 AM52 °FClear.3 mph88%30.01 "Hg10 mi
1:20 AM52 °FCool.7 mph94%30.01 "HgN/A
12:50 AM52 °FClear.8 mph88%30.01 "Hg10 mi
12:20 AM52 °FClear.8 mph88%30.01 "Hg10 mi
11:50 PM
Wed, Sep 2
50 °FClear.6 mph94%30.01 "Hg10 mi
11:20 PM55 °FClear.5 mph77%30.01 "Hg10 mi
10:50 PM54 °FClear.5 mph82%30.01 "Hg10 mi
10:20 PM54 °FClear.3 mph77%30.01 "Hg10 mi
9:50 PM54 °FClear.2 mph77%30.01 "Hg10 mi
9:20 PM55 °FClear.3 mph77%30.01 "Hg10 mi
8:50 PM57 °FSunny.2 mph67%30.01 "Hg10 mi
8:20 PM59 °FSunny.3 mph63%30.01 "Hg10 mi
7:50 PM63 °FPassing clouds.8 mph52%30.01 "HgN/A
7:20 PM63 °FPassing clouds.9 mph52%30.01 "HgN/A
6:50 PM64 °FPassing clouds.8 mph52%30.01 "HgN/A
6:20 PM64 °FMild.9 mph52%30.01 "HgN/A
5:50 PM66 °FPassing clouds.8 mph49%30.01 "HgN/A
5:20 PM66 °FPassing clouds.10 mph46%30.01 "HgN/A
4:50 PM66 °FPassing clouds.9 mph49%30.01 "HgN/A
4:20 PM64 °FScattered clouds.7 mph60%30.01 "HgN/A
3:50 PM64 °FScattered clouds.9 mph52%30.01 "HgN/A
3:20 PM64 °FPassing clouds.6 mph52%30.01 "HgN/A
2:50 PM64 °FScattered clouds.3 mph60%30.04 "HgN/A
2:20 PM61 °FScattered clouds.3 mph72%30.04 "HgN/A
1:50 PM61 °FScattered clouds.6 mph72%30.04 "HgN/A
1:20 PM61 °FScattered clouds.1 mph72%30.04 "HgN/A
12:50 PM61 °FScattered clouds.3 mph77%30.04 "HgN/A
12:20 PM61 °FScattered clouds.3 mph72%30.07 "HgN/A
11:50 AM61 °FPassing clouds.2 mph72%30.07 "HgN/A
11:20 AM59 °FPassing clouds.3 mph82%30.07 "HgN/A
10:50 AM57 °FPassing clouds.3 mph88%30.07 "Hg6 mi
10:20 AM57 °FPassing clouds.3 mph100%30.07 "Hg4 mi
9:50 AM55 °FScattered clouds.1 mph100%30.07 "Hg2 mi
9:20 AM54 °FFog.No wind100%30.07 "Hg2 mi
Weather by CustomWeather, © 2015

See weather overviewHow to use our weather pages